When you browse on this site, cookies collect data to enhance your experience and personalize the content and advertising you see.
Visit our Privacy Policy to learn more. By continuing to use the site, you agree to this use of cookies and data.
  • In France
  • List of Countries
  • For 7 days
  • Water Temperature
  • Weather Map
  • Weather Widgets
  • user-avatar
    Login

    Hourly Weather Wywoz

    Today, 19 February, Wednesday

    Time Temperature Precipitation Wind Pressure Humidity
    00:00 +1°C° 0 mm 4 mps 745 mmHg 74%
    01:00 +1°C° 0 mm 4 mps 745 mmHg 74%
    02:00 +1°C° 0 mm 4 mps 745 mmHg 76%
    03:00 +1°C° 0 mm 4 mps 744 mmHg 79%
    04:00 0°C° 0 mm 4 mps 744 mmHg 81%
    05:00 0°C° 0 mm 4 mps 743 mmHg 83%
    06:00 0°C° 0 mm 4 mps 743 mmHg 84%
    07:00 0°C° 0 mm 4 mps 743 mmHg 85%
    08:00 +1°C° 0 mm 4 mps 743 mmHg 80%
    09:00 +2°C° 0 mm 5 mps 743 mmHg 75%
    10:00 +3°C° 0 mm 5 mps 742 mmHg 71%
    11:00 +5°C° 0 mm 5 mps 742 mmHg 66%
    12:00 +5°C° 0 mm 5 mps 741 mmHg 62%
    13:00 +5°C° 0 mm 6 mps 741 mmHg 57%
    14:00 +6°C° 0 mm 5 mps 740 mmHg 59%
    15:00 +6°C° 0 mm 5 mps 740 mmHg 60%
    16:00 +6°C° 0 mm 4 mps 739 mmHg 61%
    17:00 +5°C° 0.1 mm 5 mps 739 mmHg 70%
    18:00 +3°C° 0.1 mm 5 mps 739 mmHg 79%
    19:00 +3°C° 0.1 mm 5 mps 739 mmHg 87%
    20:00 +2°C° 0.4 mm 5 mps 740 mmHg 86%
    21:00 +2°C° 0.4 mm 6 mps 740 mmHg 85%
    22:00 +2°C° 0.4 mm 6 mps 741 mmHg 84%
    23:00 +1°C° 0 mm 6 mps 741 mmHg 82%

    Tomorrow, 20 February, Thursday

    Time Temperature Precipitation Wind Pressure Humidity
    00:00 +1°C° 0 mm 5 mps 741 mmHg 80%
    01:00 +1°C° 0 mm 5 mps 742 mmHg 78%
    02:00 +1°C° 0 mm 5 mps 742 mmHg 81%
    03:00 +1°C° 0 mm 5 mps 742 mmHg 84%
    04:00 0°C° 0 mm 4 mps 743 mmHg 86%
    05:00 0°C° 0.4 mm 5 mps 743 mmHg 87%
    06:00 0°C° 0.4 mm 5 mps 743 mmHg 88%
    07:00 0°C° 0.4 mm 5 mps 744 mmHg 89%
    08:00 +1°C° 0.2 mm 5 mps 744 mmHg 86%
    09:00 +1°C° 0.2 mm 4 mps 745 mmHg 82%
    10:00 +3°C° 0.2 mm 4 mps 745 mmHg 78%
    11:00 +3°C° 0.1 mm 4 mps 745 mmHg 75%
    12:00 +3°C° 0.1 mm 3 mps 745 mmHg 72%
    13:00 +4°C° 0.1 mm 3 mps 746 mmHg 68%
    14:00 +3°C° 0 mm 3 mps 746 mmHg 67%
    15:00 +4°C° 0 mm 2 mps 745 mmHg 67%
    16:00 +4°C° 0 mm 2 mps 745 mmHg 66%
    17:00 +4°C° 0 mm 2 mps 745 mmHg 70%
    18:00 +3°C° 0 mm 2 mps 745 mmHg 74%
    19:00 +3°C° 0 mm 2 mps 745 mmHg 78%
    20:00 +2°C° 0 mm 2 mps 745 mmHg 80%
    21:00 +1°C° 0 mm 3 mps 745 mmHg 82%
    22:00 0°C° 0 mm 3 mps 744 mmHg 84%
    23:00 -1°C° 0 mm 4 mps 744 mmHg 82%

    Day after tomorrow, 21 February, Friday

    Time Temperature Precipitation Wind Pressure Humidity
    00:00 -1°C° 0 mm 4 mps 744 mmHg 79%
    01:00 -1°C° 0 mm 5 mps 743 mmHg 77%
    02:00 -1°C° 0 mm 5 mps 743 mmHg 81%
    03:00 -2°C° 0 mm 6 mps 742 mmHg 84%
    04:00 -2°C° 0 mm 7 mps 741 mmHg 88%
    05:00 -2°C° 0.2 mm 7 mps 741 mmHg 90%
    06:00 -1°C° 0.2 mm 7 mps 741 mmHg 92%
    07:00 -1°C° 0.2 mm 7 mps 740 mmHg 94%
    14:00 +1°C° 0.1 mm 8 mps 745 mmHg 64%
    15:00 +1°C° 0.1 mm 8 mps 745 mmHg 67%
    16:00 +2°C° 0.1 mm 7 mps 746 mmHg 70%
    17:00 +2°C° 0 mm 6 mps 747 mmHg 71%
    18:00 +1°C° 0 mm 6 mps 747 mmHg 73%
    19:00 +1°C° 0 mm 5 mps 748 mmHg 74%
    20:00 0°C° 0 mm 5 mps 748 mmHg 77%
    21:00 0°C° 0 mm 4 mps 749 mmHg 80%
    22:00 -1°C° 0 mm 4 mps 749 mmHg 83%
    23:00 -1°C° 0 mm 4 mps 749 mmHg 83%

    22 February, Saturday

    Time Temperature Precipitation Wind Pressure Humidity
    00:00 -1°C° 0 mm 4 mps 749 mmHg 84%
    01:00 -1°C° 0 mm 4 mps 749 mmHg 85%
    02:00 -2°C° 0 mm 4 mps 749 mmHg 85%
    03:00 -2°C° 0 mm 4 mps 749 mmHg 86%
    04:00 -2°C° 0 mm 4 mps 749 mmHg 86%
    05:00 -1°C° 0 mm 4 mps 749 mmHg 84%
    06:00 -1°C° 0 mm 5 mps 749 mmHg 81%
    07:00 -1°C° 0 mm 5 mps 749 mmHg 79%
    08:00 0°C° 0 mm 5 mps 748 mmHg 73%
    09:00 +1°C° 0 mm 6 mps 748 mmHg 68%
    10:00 +2°C° 0 mm 7 mps 747 mmHg 62%
    11:00 +3°C° 0 mm 7 mps 747 mmHg 60%
    12:00 +3°C° 0 mm 7 mps 746 mmHg 59%
    13:00 +4°C° 0 mm 8 mps 745 mmHg 57%
    14:00 +4°C° 0 mm 7 mps 745 mmHg 56%
    15:00 +5°C° 0 mm 7 mps 744 mmHg 55%
    16:00 +5°C° 0 mm 7 mps 743 mmHg 54%
    17:00 +5°C° 0 mm 7 mps 743 mmHg 54%
    18:00 +5°C° 0 mm 8 mps 743 mmHg 54%
    19:00 +5°C° 0 mm 8 mps 743 mmHg 54%
    20:00 +5°C° 0 mm 8 mps 742 mmHg 55%
    21:00 +5°C° 0 mm 8 mps 742 mmHg 55%
    22:00 +6°C° 0 mm 8 mps 742 mmHg 56%
    23:00 +5°C° 0 mm 8 mps 742 mmHg 59%

    23 February, Sunday

    Time Temperature Precipitation Wind Pressure Humidity
    00:00 +5°C° 0 mm 8 mps 742 mmHg 62%
    01:00 +5°C° 0 mm 8 mps 742 mmHg 65%
    02:00 +5°C° 0.2 mm 8 mps 741 mmHg 71%
    03:00 +5°C° 0.2 mm 8 mps 741 mmHg 76%
    04:00 +4°C° 0.2 mm 7 mps 741 mmHg 81%
    05:00 +4°C° 0.7 mm 7 mps 741 mmHg 81%
    06:00 +4°C° 0.7 mm 8 mps 741 mmHg 82%
    07:00 +2°C° 0.7 mm 8 mps 741 mmHg 82%
    08:00 +4°C° 0.1 mm 8 mps 741 mmHg 75%
    09:00 +5°C° 0.1 mm 8 mps 741 mmHg 69%
    10:00 +5°C° 0.1 mm 8 mps 742 mmHg 63%
    11:00 +5°C° 0.1 mm 8 mps 741 mmHg 65%
    12:00 +5°C° 0.1 mm 7 mps 741 mmHg 68%
    13:00 +5°C° 0.1 mm 7 mps 741 mmHg 71%
    14:00 +4°C° 0.2 mm 6 mps 740 mmHg 76%
    15:00 +4°C° 0.2 mm 6 mps 739 mmHg 81%
    16:00 +3°C° 0.2 mm 5 mps 738 mmHg 86%
    17:00 +3°C° 0.4 mm 5 mps 737 mmHg 87%
    18:00 +4°C° 0.4 mm 4 mps 736 mmHg 89%
    19:00 +4°C° 0.4 mm 4 mps 735 mmHg 90%
    20:00 +5°C° 1.4 mm 5 mps 734 mmHg 90%
    21:00 +5°C° 1.4 mm 7 mps 732 mmHg 89%
    22:00 +6°C° 1.4 mm 8 mps 730 mmHg 88%
    23:00 +6°C° 1.7 mm 9 mps 730 mmHg 85%

    24 February, Monday

    Time Temperature Precipitation Wind Pressure Humidity
    00:00 +6°C° 1.7 mm 10 mps 729 mmHg 81%
    01:00 +6°C° 1.7 mm 10 mps 729 mmHg 77%
    02:00 +3°C° 0.6 mm 10 mps 730 mmHg 83%
    03:00 +1°C° 0.6 mm 9 mps 732 mmHg 89%
    04:00 -1°C° 0.6 mm 8 mps 733 mmHg 94%
    05:00 -1°C° 0.4 mm 9 mps 735 mmHg 87%
    06:00 -2°C° 0.4 mm 10 mps 737 mmHg 81%
    07:00 -2°C° 0.4 mm 11 mps 738 mmHg 74%
    08:00 -2°C° 0.1 mm 11 mps 739 mmHg 76%
    09:00 -2°C° 0.1 mm 11 mps 740 mmHg 78%
    10:00 -1°C° 0.1 mm 12 mps 741 mmHg 80%
    11:00 -1°C° 0 mm 11 mps 742 mmHg 75%
    12:00 +1°C° 0 mm 11 mps 743 mmHg 70%
    13:00 +1°C° 0 mm 11 mps 743 mmHg 65%
    14:00 +2°C° 0.1 mm 10 mps 744 mmHg 63%
    15:00 +2°C° 0.1 mm 9 mps 744 mmHg 61%
    16:00 +2°C° 0.1 mm 8 mps 745 mmHg 59%
    17:00 +2°C° 0 mm 7 mps 745 mmHg 62%
    18:00 +2°C° 0 mm 6 mps 746 mmHg 65%
    19:00 +1°C° 0 mm 5 mps 747 mmHg 68%
    20:00 +1°C° 0 mm 5 mps 747 mmHg 72%
    21:00 0°C° 0 mm 4 mps 747 mmHg 76%
    22:00 0°C° 0 mm 4 mps 747 mmHg 80%
    23:00 0°C° 0 mm 3 mps 747 mmHg 82%
    Show more